contact:dominique.lefevre@mio.osupytheas.fr, maurice.libes@osupytheas.fr, didier.mallarino@osupytheas.fr
Project:EMSO http://www.emso-fr.org/EMSO-France
Depth: 2436.0 m
Title:EMSO Ligure Ouest : Data MII capteur MICROCAT
DateTime_Computer,Latitude,Longitude,Temperature,Conductivity,Pressure,DateTime_Instrument
DateTime_Computer,Latitude,Longitude,degC,S m-1,dbar,DateTime_Instrument
2021-01-15T00:01:57Z,42.805,6.029,13.2982,4.59984,2470.04,2021-1-15T02:02:58Z
2021-01-15T00:05:00Z,42.805,6.029,13.2978,4.59983,2470.04,2021-1-15T02:06:01Z
2021-01-15T00:08:03Z,42.805,6.029,13.2980,4.59983,2470.053,2021-1-15T02:09:04Z
2021-01-15T00:11:06Z,42.805,6.029,13.2980,4.59983,2470.03,2021-1-15T02:12:08Z
2021-01-15T00:14:09Z,42.805,6.029,13.2983,4.59984,2470.04,2021-1-15T02:15:11Z
2021-01-15T00:17:12Z,42.805,6.029,13.2986,4.59986,2470.017,2021-1-15T02:18:14Z
2021-01-15T00:20:16Z,42.805,6.029,13.2985,4.59984,2470.007,2021-1-15T02:21:17Z
2021-01-15T00:23:19Z,42.805,6.029,13.2983,4.59983,2470.03,2021-1-15T02:24:20Z
2021-01-15T00:26:22Z,42.805,6.029,13.2983,4.59983,2470.017,2021-1-15T02:27:23Z
2021-01-15T00:29:25Z,42.805,6.029,13.2978,4.59983,2470.017,2021-1-15T02:30:26Z
2021-01-15T00:32:28Z,42.805,6.029,13.2986,4.59985,2469.984,2021-1-15T02:33:29Z
2021-01-15T00:35:31Z,42.805,6.029,13.2985,4.59983,2469.993,2021-1-15T02:36:32Z
2021-01-15T00:38:34Z,42.805,6.029,13.2982,4.59985,2470.03,2021-1-15T02:39:36Z
2021-01-15T00:41:37Z,42.805,6.029,13.2983,4.59983,2470.017,2021-1-15T02:42:39Z
2021-01-15T00:44:40Z,42.805,6.029,13.2982,4.59985,2470.017,2021-1-15T02:45:42Z
2021-01-15T00:47:44Z,42.805,6.029,13.2982,4.59986,2470.017,2021-1-15T02:48:45Z
2021-01-15T00:50:47Z,42.805,6.029,13.2982,4.59983,2469.993,2021-1-15T02:51:48Z
2021-01-15T00:53:50Z,42.805,6.029,13.2983,4.59984,2470.017,2021-1-15T02:54:51Z
2021-01-15T00:56:53Z,42.805,6.029,13.2981,4.59984,2469.97,2021-1-15T02:57:54Z
2021-01-15T00:59:56Z,42.805,6.029,13.2981,4.59983,2470.017,2021-1-15T03:00:57Z
2021-01-15T01:02:59Z,42.805,6.029,13.2984,4.59983,2469.993,2021-1-15T03:04:01Z
2021-01-15T01:06:02Z,42.805,6.029,13.2985,4.59983,2469.993,2021-1-15T03:07:04Z
2021-01-15T01:09:05Z,42.805,6.029,13.2979,4.59983,2469.984,2021-1-15T03:10:07Z
2021-01-15T01:12:09Z,42.805,6.029,13.2982,4.59984,2469.984,2021-1-15T03:13:10Z
2021-01-15T01:15:12Z,42.805,6.029,13.2979,4.59983,2470.017,2021-1-15T03:16:13Z
2021-01-15T01:18:15Z,42.805,6.029,13.2987,4.59984,2469.956,2021-1-15T03:19:16Z
2021-01-15T01:21:18Z,42.805,6.029,13.2981,4.59983,2469.97,2021-1-15T03:22:19Z
2021-01-15T01:24:21Z,42.805,6.029,13.2983,4.59983,2470.017,2021-1-15T03:25:22Z
2021-01-15T01:27:24Z,42.805,6.029,13.2987,4.59983,2469.993,2021-1-15T03:28:26Z
2021-01-15T01:30:27Z,42.805,6.029,13.2982,4.59983,2469.993,2021-1-15T03:31:29Z
2021-01-15T01:33:30Z,42.805,6.029,13.2986,4.59983,2469.993,2021-1-15T03:34:32Z
2021-01-15T01:36:34Z,42.805,6.029,13.2983,4.59983,2469.993,2021-1-15T03:37:35Z
2021-01-15T01:39:37Z,42.805,6.029,13.2980,4.59983,2469.993,2021-1-15T03:40:38Z
2021-01-15T01:42:40Z,42.805,6.029,13.2981,4.59983,2469.97,2021-1-15T03:43:41Z
2021-01-15T01:45:43Z,42.805,6.029,13.2979,4.59982,2469.993,2021-1-15T03:46:44Z
2021-01-15T01:48:46Z,42.805,6.029,13.2982,4.59983,2469.984,2021-1-15T03:49:47Z
2021-01-15T01:51:49Z,42.805,6.029,13.2982,4.59983,2470.007,2021-1-15T03:52:51Z
2021-01-15T01:54:52Z,42.805,6.029,13.2982,4.59982,2469.97,2021-1-15T03:55:54Z
2021-01-15T01:57:55Z,42.805,6.029,13.2979,4.59983,2469.97,2021-1-15T03:58:57Z
2021-01-15T02:00:59Z,42.805,6.029,13.2985,4.59983,2470.03,2021-1-15T04:02:00Z
2021-01-15T02:04:02Z,42.805,6.029,13.2983,4.59983,2470.007,2021-1-15T04:05:03Z
2021-01-15T02:07:05Z,42.805,6.029,13.2979,4.59982,2469.984,2021-1-15T04:08:06Z
2021-01-15T02:10:08Z,42.805,6.029,13.2979,4.59982,2469.97,2021-1-15T04:11:09Z
2021-01-15T02:13:11Z,42.805,6.029,13.2980,4.59982,2469.97,2021-1-15T04:14:12Z
2021-01-15T02:16:14Z,42.805,6.029,13.2982,4.59983,2469.984,2021-1-15T04:17:16Z
2021-01-15T02:19:17Z,42.805,6.029,13.2984,4.59982,2469.947,2021-1-15T04:20:19Z
2021-01-15T02:22:20Z,42.805,6.029,13.2982,4.59983,2469.984,2021-1-15T04:23:22Z
2021-01-15T02:25:24Z,42.805,6.029,13.2979,4.59983,2469.97,2021-1-15T04:26:25Z
2021-01-15T02:28:27Z,42.805,6.029,13.2981,4.59983,2469.993,2021-1-15T04:29:28Z
2021-01-15T02:31:30Z,42.805,6.029,13.2983,4.59983,2469.984,2021-1-15T04:32:31Z
2021-01-15T02:34:33Z,42.805,6.029,13.2983,4.59983,2469.984,2021-1-15T04:35:34Z
2021-01-15T02:37:36Z,42.805,6.029,13.2982,4.59983,2469.97,2021-1-15T04:38:37Z
2021-01-15T02:40:39Z,42.805,6.029,13.2980,4.59983,2470.03,2021-1-15T04:41:41Z
2021-01-15T02:43:42Z,42.805,6.029,13.2979,4.59983,2469.97,2021-1-15T04:44:44Z
2021-01-15T02:46:45Z,42.805,6.029,13.2981,4.59982,2469.97,2021-1-15T04:47:47Z
2021-01-15T02:49:48Z,42.805,6.029,13.2984,4.59984,2469.984,2021-1-15T04:50:50Z
2021-01-15T02:52:52Z,42.805,6.029,13.2981,4.59983,2469.97,2021-1-15T04:53:53Z
2021-01-15T02:55:55Z,42.805,6.029,13.2983,4.59982,2469.984,2021-1-15T04:56:56Z
2021-01-15T02:58:58Z,42.805,6.029,13.2983,4.59983,2469.984,2021-1-15T04:59:59Z
2021-01-15T03:02:01Z,42.805,6.029,13.2983,4.59983,2469.97,2021-1-15T05:03:02Z
2021-01-15T03:05:04Z,42.805,6.029,13.2975,4.59983,2470.007,2021-1-15T05:06:05Z
2021-01-15T03:08:07Z,42.805,6.029,13.2982,4.59983,2469.97,2021-1-15T05:09:09Z
2021-01-15T03:11:10Z,42.805,6.029,13.2983,4.59983,2469.97,2021-1-15T05:12:12Z
2021-01-15T03:14:13Z,42.805,6.029,13.2983,4.59982,2469.993,2021-1-15T05:15:15Z
2021-01-15T03:17:17Z,42.805,6.029,13.2983,4.59982,2470.021,2021-1-15T05:18:18Z
2021-01-15T03:20:20Z,42.805,6.029,13.2981,4.59983,2469.993,2021-1-15T05:21:21Z
2021-01-15T03:23:23Z,42.805,6.029,13.2977,4.59986,2470.007,2021-1-15T05:24:24Z
2021-01-15T03:26:26Z,42.805,6.029,13.2982,4.59983,2469.993,2021-1-15T05:27:27Z
2021-01-15T03:29:29Z,42.805,6.029,13.2984,4.59983,2470.03,2021-1-15T05:30:30Z
2021-01-15T03:32:32Z,42.805,6.029,13.2977,4.59983,2469.97,2021-1-15T05:33:34Z
2021-01-15T03:35:35Z,42.805,6.029,13.2983,4.59983,2470.017,2021-1-15T05:36:37Z
2021-01-15T03:38:38Z,42.805,6.029,13.2979,4.59984,2470.007,2021-1-15T05:39:40Z
2021-01-15T03:41:42Z,42.805,6.029,13.2979,4.59982,2469.993,2021-1-15T05:42:43Z
2021-01-15T03:44:45Z,42.805,6.029,13.2981,4.59983,2470.03,2021-1-15T05:45:46Z
2021-01-15T03:47:48Z,42.805,6.029,13.2980,4.59982,2469.993,2021-1-15T05:48:49Z
2021-01-15T03:50:51Z,42.805,6.029,13.2985,4.59983,2469.993,2021-1-15T05:51:52Z
2021-01-15T03:53:54Z,42.805,6.029,13.2981,4.59984,2469.993,2021-1-15T05:54:55Z
2021-01-15T03:56:57Z,42.805,6.029,13.2984,4.59982,2470.04,2021-1-15T05:57:59Z
2021-01-15T04:00:00Z,42.805,6.029,13.2982,4.59982,2470.017,2021-1-15T06:01:02Z
2021-01-15T04:03:03Z,42.805,6.029,13.2982,4.59983,2470.053,2021-1-15T06:04:05Z
2021-01-15T04:06:07Z,42.805,6.029,13.2983,4.59983,2470.017,2021-1-15T06:07:08Z
2021-01-15T04:09:10Z,42.805,6.029,13.2982,4.59983,2469.993,2021-1-15T06:10:11Z
2021-01-15T04:12:13Z,42.805,6.029,13.2979,4.59983,2470.017,2021-1-15T06:13:14Z
2021-01-15T04:15:16Z,42.805,6.029,13.2982,4.59984,2470.007,2021-1-15T06:16:17Z
2021-01-15T04:18:19Z,42.805,6.029,13.2983,4.59983,2469.993,2021-1-15T06:19:20Z
2021-01-15T04:21:22Z,42.805,6.029,13.2982,4.59983,2469.993,2021-1-15T06:22:24Z
2021-01-15T04:24:25Z,42.805,6.029,13.2981,4.59982,2470.017,2021-1-15T06:25:27Z
2021-01-15T04:27:28Z,42.805,6.029,13.2984,4.59983,2470.017,2021-1-15T06:28:30Z
2021-01-15T04:30:31Z,42.805,6.029,13.2979,4.59983,2470.003,2021-1-15T06:31:33Z
2021-01-15T04:33:35Z,42.805,6.029,13.2982,4.59983,2470.017,2021-1-15T06:34:36Z
2021-01-15T04:36:38Z,42.805,6.029,13.2983,4.59983,2470.017,2021-1-15T06:37:39Z
2021-01-15T04:39:41Z,42.805,6.029,13.2986,4.59983,2470.017,2021-1-15T06:40:42Z
2021-01-15T04:42:44Z,42.805,6.029,13.2981,4.59983,2470.04,2021-1-15T06:43:45Z
2021-01-15T04:45:47Z,42.805,6.029,13.2981,4.59983,2470.053,2021-1-15T06:46:49Z
2021-01-15T04:48:50Z,42.805,6.029,13.2983,4.59984,2470.04,2021-1-15T06:49:52Z
2021-01-15T04:51:53Z,42.805,6.029,13.2982,4.59983,2470.053,2021-1-15T06:52:55Z
2021-01-15T04:54:57Z,42.805,6.029,13.2982,4.59983,2470.063,2021-1-15T06:55:58Z
2021-01-15T04:58:00Z,42.805,6.029,13.2983,4.59985,2470.04,2021-1-15T06:59:01Z
2021-01-15T05:01:03Z,42.805,6.029,13.2980,4.59983,2470.063,2021-1-15T07:02:04Z
2021-01-15T05:04:06Z,42.805,6.029,13.2983,4.59983,2470.087,2021-1-15T07:05:07Z
2021-01-15T05:07:09Z,42.805,6.029,13.2983,4.59984,2470.087,2021-1-15T07:08:10Z
2021-01-15T05:10:12Z,42.805,6.029,13.2984,4.59983,2470.087,2021-1-15T07:11:14Z
2021-01-15T05:13:15Z,42.805,6.029,13.2981,4.59984,2470.087,2021-1-15T07:14:17Z
2021-01-15T05:16:18Z,42.805,6.029,13.2977,4.59984,2470.087,2021-1-15T07:17:20Z
2021-01-15T05:19:21Z,42.805,6.029,13.2982,4.59983,2470.087,2021-1-15T07:20:23Z
2021-01-15T05:22:25Z,42.805,6.029,13.2981,4.59984,2470.087,2021-1-15T07:23:26Z
2021-01-15T05:25:28Z,42.805,6.029,13.2979,4.59983,2470.11,2021-1-15T07:26:29Z
2021-01-15T05:28:31Z,42.805,6.029,13.2987,4.59984,2470.1,2021-1-15T07:29:32Z
2021-01-15T05:31:34Z,42.805,6.029,13.2983,4.59985,2470.11,2021-1-15T07:32:35Z
2021-01-15T05:34:37Z,42.805,6.029,13.2983,4.59984,2470.063,2021-1-15T07:35:39Z
2021-01-15T05:37:40Z,42.805,6.029,13.2979,4.59984,2470.11,2021-1-15T07:38:42Z
2021-01-15T05:40:43Z,42.805,6.029,13.2980,4.59984,2470.124,2021-1-15T07:41:45Z
2021-01-15T05:43:46Z,42.805,6.029,13.2983,4.59984,2470.133,2021-1-15T07:44:48Z
2021-01-15T05:46:50Z,42.805,6.029,13.2980,4.59983,2470.119,2021-1-15T07:47:51Z
2021-01-15T05:49:53Z,42.805,6.029,13.2983,4.59986,2470.156,2021-1-15T07:50:54Z
2021-01-15T05:52:56Z,42.805,6.029,13.2980,4.59984,2470.156,2021-1-15T07:53:57Z
2021-01-15T05:55:59Z,42.805,6.029,13.2983,4.59984,2470.171,2021-1-15T07:57:00Z
2021-01-15T05:59:02Z,42.805,6.029,13.2982,4.59986,2470.171,2021-1-15T08:00:03Z
2021-01-15T06:02:05Z,42.805,6.029,13.2982,4.59983,2470.203,2021-1-15T08:03:07Z
2021-01-15T06:05:08Z,42.805,6.029,13.2982,4.59986,2470.156,2021-1-15T08:06:10Z
2021-01-15T06:08:11Z,42.805,6.029,13.2983,4.59984,2470.156,2021-1-15T08:09:13Z
2021-01-15T06:11:15Z,42.805,6.029,13.2979,4.59984,2470.18,2021-1-15T08:12:16Z
2021-01-15T06:14:18Z,42.805,6.029,13.2984,4.59984,2470.194,2021-1-15T08:15:19Z
2021-01-15T06:17:21Z,42.805,6.029,13.2983,4.59986,2470.156,2021-1-15T08:18:22Z
2021-01-15T06:20:24Z,42.805,6.029,13.2982,4.59984,2470.194,2021-1-15T08:21:25Z
2021-01-15T06:23:27Z,42.805,6.029,13.2980,4.59984,2470.203,2021-1-15T08:24:28Z
2021-01-15T06:26:30Z,42.805,6.029,13.2986,4.59983,2470.18,2021-1-15T08:27:32Z
2021-01-15T06:29:33Z,42.805,6.029,13.2982,4.59985,2470.203,2021-1-15T08:30:35Z
2021-01-15T06:32:36Z,42.805,6.029,13.2981,4.59984,2470.217,2021-1-15T08:33:38Z
2021-01-15T06:35:39Z,42.805,6.029,13.2982,4.59984,2470.203,2021-1-15T08:36:41Z
2021-01-15T06:38:43Z,42.805,6.029,13.2982,4.59985,2470.143,2021-1-15T08:39:44Z
2021-01-15T06:41:46Z,42.805,6.029,13.2979,4.59984,2470.18,2021-1-15T08:42:47Z
2021-01-15T06:44:49Z,42.805,6.029,13.2979,4.59984,2470.217,2021-1-15T08:45:50Z
2021-01-15T06:47:52Z,42.805,6.029,13.2983,4.59984,2470.24,2021-1-15T08:48:53Z
2021-01-15T06:50:55Z,42.805,6.029,13.2979,4.59984,2470.24,2021-1-15T08:51:57Z
2021-01-15T06:53:58Z,42.805,6.029,13.2985,4.59984,2470.24,2021-1-15T08:55:00Z
2021-01-15T06:57:01Z,42.805,6.029,13.2984,4.59984,2470.203,2021-1-15T08:58:03Z
2021-01-15T07:00:04Z,42.805,6.029,13.2982,4.59986,2470.227,2021-1-15T09:01:06Z
2021-01-15T07:03:08Z,42.805,6.029,13.2979,4.59984,2470.227,2021-1-15T09:04:09Z
2021-01-15T07:06:11Z,42.805,6.029,13.2980,4.59984,2470.25,2021-1-15T09:07:12Z
2021-01-15T07:09:14Z,42.805,6.029,13.2983,4.59985,2470.264,2021-1-15T09:10:15Z
2021-01-15T07:12:17Z,42.805,6.029,13.2981,4.59986,2470.203,2021-1-15T09:13:18Z
2021-01-15T07:15:20Z,42.805,6.029,13.2985,4.59984,2470.264,2021-1-15T09:16:21Z
2021-01-15T07:18:23Z,42.805,6.029,13.2981,4.59984,2470.26,2021-1-15T09:19:25Z
2021-01-15T07:21:26Z,42.805,6.029,13.2985,4.59984,2470.25,2021-1-15T09:22:28Z
2021-01-15T07:24:29Z,42.805,6.029,13.2980,4.59984,2470.227,2021-1-15T09:25:31Z
2021-01-15T07:27:33Z,42.805,6.029,13.2979,4.59984,2470.203,2021-1-15T09:28:34Z
2021-01-15T07:30:36Z,42.805,6.029,13.2984,4.59984,2470.25,2021-1-15T09:31:37Z
2021-01-15T07:33:39Z,42.805,6.029,13.2981,4.59986,2470.227,2021-1-15T09:34:40Z
2021-01-15T07:36:42Z,42.805,6.029,13.2980,4.59984,2470.273,2021-1-15T09:37:43Z
2021-01-15T07:39:45Z,42.805,6.029,13.2982,4.59985,2470.25,2021-1-15T09:40:47Z
2021-01-15T07:42:48Z,42.805,6.029,13.2983,4.59985,2470.24,2021-1-15T09:43:50Z
2021-01-15T07:45:51Z,42.805,6.029,13.2979,4.59984,2470.227,2021-1-15T09:46:53Z
2021-01-15T07:48:54Z,42.805,6.029,13.2983,4.59984,2470.297,2021-1-15T09:49:56Z
2021-01-15T07:51:58Z,42.805,6.029,13.2982,4.59984,2470.264,2021-1-15T09:52:59Z
2021-01-15T07:55:01Z,42.805,6.029,13.2982,4.59985,2470.31,2021-1-15T09:56:02Z
2021-01-15T07:58:04Z,42.805,6.029,13.2979,4.59986,2470.273,2021-1-15T09:59:05Z
2021-01-15T08:01:07Z,42.805,6.029,13.2983,4.59983,2470.273,2021-1-15T10:02:08Z
2021-01-15T08:04:10Z,42.805,6.029,13.2979,4.59984,2470.273,2021-1-15T10:05:12Z
2021-01-15T08:07:13Z,42.805,6.029,13.2982,4.59984,2470.25,2021-1-15T10:08:15Z
2021-01-15T08:10:16Z,42.805,6.029,13.2986,4.59986,2470.31,2021-1-15T10:11:18Z
2021-01-15T08:13:19Z,42.805,6.029,13.2982,4.59986,2470.297,2021-1-15T10:14:21Z
2021-01-15T08:16:23Z,42.805,6.029,13.2981,4.59984,2470.25,2021-1-15T10:17:24Z
2021-01-15T08:19:26Z,42.805,6.029,13.2979,4.59984,2470.31,2021-1-15T10:20:27Z
2021-01-15T08:22:29Z,42.805,6.029,13.2979,4.59984,2470.297,2021-1-15T10:23:30Z
2021-01-15T08:25:32Z,42.805,6.029,13.2981,4.59984,2470.287,2021-1-15T10:26:33Z
2021-01-15T08:28:35Z,42.805,6.029,13.2982,4.59985,2470.31,2021-1-15T10:29:37Z
2021-01-15T08:31:38Z,42.805,6.029,13.2982,4.59986,2470.297,2021-1-15T10:32:40Z
2021-01-15T08:34:41Z,42.805,6.029,13.2982,4.59985,2470.25,2021-1-15T10:35:43Z
2021-01-15T08:37:45Z,42.805,6.029,13.2980,4.59986,2470.343,2021-1-15T10:38:46Z
2021-01-15T08:40:48Z,42.805,6.029,13.2982,4.59984,2470.334,2021-1-15T10:41:49Z
2021-01-15T08:43:51Z,42.805,6.029,13.2977,4.59984,2470.287,2021-1-15T10:44:52Z
2021-01-15T08:46:54Z,42.805,6.029,13.2979,4.59984,2470.334,2021-1-15T10:47:55Z
2021-01-15T08:49:57Z,42.805,6.029,13.2982,4.59985,2470.31,2021-1-15T10:50:58Z
2021-01-15T08:53:00Z,42.805,6.029,13.2982,4.59985,2470.32,2021-1-15T10:54:02Z
2021-01-15T08:56:03Z,42.805,6.029,13.2983,4.59983,2470.32,2021-1-15T10:57:05Z
2021-01-15T08:59:06Z,42.805,6.029,13.2979,4.59984,2470.31,2021-1-15T11:00:08Z
2021-01-15T09:02:10Z,42.805,6.029,13.2981,4.59984,2470.273,2021-1-15T11:03:11Z
2021-01-15T09:05:13Z,42.805,6.029,13.2986,4.59984,2470.32,2021-1-15T11:06:14Z
2021-01-15T09:08:16Z,42.805,6.029,13.2983,4.59984,2470.273,2021-1-15T11:09:17Z
2021-01-15T09:11:19Z,42.805,6.029,13.2983,4.59985,2470.357,2021-1-15T11:12:20Z
2021-01-15T09:14:22Z,42.805,6.029,13.2983,4.59985,2470.31,2021-1-15T11:15:24Z
2021-01-15T09:17:25Z,42.805,6.029,13.2979,4.59984,2470.32,2021-1-15T11:18:27Z
2021-01-15T09:20:28Z,42.805,6.029,13.2983,4.59985,2470.287,2021-1-15T11:21:30Z
2021-01-15T09:23:31Z,42.805,6.029,13.2979,4.59985,2470.32,2021-1-15T11:24:33Z
2021-01-15T09:26:35Z,42.805,6.029,13.2985,4.59986,2470.31,2021-1-15T11:27:36Z
2021-01-15T09:29:38Z,42.805,6.029,13.2981,4.59986,2470.273,2021-1-15T11:30:39Z
2021-01-15T09:32:41Z,42.805,6.029,13.2982,4.59985,2470.343,2021-1-15T11:33:42Z
2021-01-15T09:35:44Z,42.805,6.029,13.2980,4.59985,2470.297,2021-1-15T11:36:45Z
2021-01-15T09:38:47Z,42.805,6.029,13.2983,4.59985,2470.31,2021-1-15T11:39:49Z
2021-01-15T09:41:50Z,42.805,6.029,13.2977,4.59985,2470.273,2021-1-15T11:42:52Z
2021-01-15T09:44:53Z,42.805,6.029,13.2982,4.59984,2470.31,2021-1-15T11:45:55Z
2021-01-15T09:47:56Z,42.805,6.029,13.2982,4.59985,2470.297,2021-1-15T11:48:58Z
2021-01-15T09:51:00Z,42.805,6.029,13.2982,4.59985,2470.334,2021-1-15T11:52:01Z
2021-01-15T09:54:03Z,42.805,6.029,13.2981,4.59986,2470.334,2021-1-15T11:55:04Z
2021-01-15T09:57:06Z,42.805,6.029,13.2986,4.59984,2470.287,2021-1-15T11:58:07Z
2021-01-15T10:00:09Z,42.805,6.029,13.2982,4.59985,2470.297,2021-1-15T12:01:10Z
2021-01-15T10:03:12Z,42.805,6.029,13.2985,4.59989,2470.31,2021-1-15T12:04:14Z
2021-01-15T10:06:15Z,42.805,6.029,13.2983,4.59985,2470.26,2021-1-15T12:07:17Z
2021-01-15T10:09:18Z,42.805,6.029,13.2982,4.59985,2470.287,2021-1-15T12:10:20Z
2021-01-15T10:12:22Z,42.805,6.029,13.2982,4.59986,2470.32,2021-1-15T12:13:23Z
2021-01-15T10:15:25Z,42.805,6.029,13.2982,4.59986,2470.297,2021-1-15T12:16:26Z
2021-01-15T10:18:28Z,42.805,6.029,13.2983,4.59984,2470.31,2021-1-15T12:19:29Z
2021-01-15T10:21:31Z,42.805,6.029,13.2982,4.59985,2470.32,2021-1-15T12:22:32Z
2021-01-15T10:24:34Z,42.805,6.029,13.2983,4.59985,2470.273,2021-1-15T12:25:35Z
2021-01-15T10:27:37Z,42.805,6.029,13.2982,4.59985,2470.273,2021-1-15T12:28:39Z
2021-01-15T10:30:40Z,42.805,6.029,13.2980,4.59985,2470.297,2021-1-15T12:31:42Z
2021-01-15T10:33:43Z,42.805,6.029,13.2984,4.59985,2470.273,2021-1-15T12:34:45Z
2021-01-15T10:36:47Z,42.805,6.029,13.2979,4.59985,2470.297,2021-1-15T12:37:48Z
2021-01-15T10:39:50Z,42.805,6.029,13.2984,4.59987,2470.287,2021-1-15T12:40:51Z
2021-01-15T10:42:53Z,42.805,6.029,13.2978,4.59985,2470.31,2021-1-15T12:43:54Z
2021-01-15T10:45:56Z,42.805,6.029,13.2981,4.59986,2470.25,2021-1-15T12:46:57Z
2021-01-15T10:48:59Z,42.805,6.029,13.2983,4.59985,2470.287,2021-1-15T12:50:00Z
2021-01-15T10:52:02Z,42.805,6.029,13.2984,4.59986,2470.283,2021-1-15T12:53:04Z
2021-01-15T10:55:05Z,42.805,6.029,13.2980,4.59984,2470.273,2021-1-15T12:56:07Z
2021-01-15T10:58:08Z,42.805,6.029,13.2983,4.59985,2470.273,2021-1-15T12:59:10Z
2021-01-15T11:01:12Z,42.805,6.029,13.2978,4.59984,2470.25,2021-1-15T13:02:13Z
2021-01-15T11:04:15Z,42.805,6.029,13.2982,4.59985,2470.25,2021-1-15T13:05:16Z
2021-01-15T11:07:18Z,42.805,6.029,13.2982,4.59985,2470.273,2021-1-15T13:08:19Z
2021-01-15T11:10:21Z,42.805,6.029,13.2985,4.59985,2470.227,2021-1-15T13:11:22Z
2021-01-15T11:13:24Z,42.805,6.029,13.2983,4.59986,2470.25,2021-1-15T13:14:25Z
2021-01-15T11:16:27Z,42.805,6.029,13.2983,4.59986,2470.24,2021-1-15T13:17:29Z
2021-01-15T11:19:30Z,42.805,6.029,13.2981,4.59986,2470.273,2021-1-15T13:20:32Z
2021-01-15T11:22:33Z,42.805,6.029,13.2981,4.59985,2470.264,2021-1-15T13:23:35Z
2021-01-15T11:25:37Z,42.805,6.029,13.2982,4.59985,2470.287,2021-1-15T13:26:38Z
2021-01-15T11:28:40Z,42.805,6.029,13.2983,4.59986,2470.213,2021-1-15T13:29:41Z
2021-01-15T11:31:43Z,42.805,6.029,13.2982,4.59985,2470.273,2021-1-15T13:32:44Z
2021-01-15T11:34:46Z,42.805,6.029,13.2983,4.59985,2470.194,2021-1-15T13:35:47Z
2021-01-15T11:37:49Z,42.805,6.029,13.2983,4.59985,2470.24,2021-1-15T13:38:51Z
2021-01-15T11:40:52Z,42.805,6.029,13.2986,4.59985,2470.25,2021-1-15T13:41:54Z
2021-01-15T11:43:55Z,42.805,6.029,13.2979,4.59986,2470.24,2021-1-15T13:44:57Z
2021-01-15T11:46:58Z,42.805,6.029,13.2980,4.59986,2470.24,2021-1-15T13:48:00Z
2021-01-15T11:50:02Z,42.805,6.029,13.2983,4.59987,2470.24,2021-1-15T13:51:03Z
2021-01-15T11:53:05Z,42.805,6.029,13.2987,4.59985,2470.264,2021-1-15T13:54:06Z
2021-01-15T11:56:08Z,42.805,6.029,13.2979,4.59985,2470.217,2021-1-15T13:57:09Z
2021-01-15T11:59:11Z,42.805,6.029,13.2986,4.59985,2470.24,2021-1-15T14:00:12Z
2021-01-15T12:02:14Z,42.805,6.029,13.2981,4.59985,2470.203,2021-1-15T14:03:16Z
2021-01-15T12:05:17Z,42.805,6.029,13.2983,4.59985,2470.203,2021-1-15T14:06:19Z
2021-01-15T12:08:20Z,42.805,6.029,13.2984,4.59986,2470.18,2021-1-15T14:09:22Z
2021-01-15T12:11:23Z,42.805,6.029,13.2982,4.59985,2470.203,2021-1-15T14:12:25Z
2021-01-15T12:14:27Z,42.805,6.029,13.2985,4.59986,2470.227,2021-1-15T14:15:28Z
2021-01-15T12:17:30Z,42.805,6.029,13.2981,4.59985,2470.217,2021-1-15T14:18:31Z
2021-01-15T12:20:33Z,42.805,6.029,13.2983,4.59986,2470.227,2021-1-15T14:21:34Z
2021-01-15T12:23:36Z,42.805,6.029,13.2984,4.59985,2470.203,2021-1-15T14:24:37Z
2021-01-15T12:26:39Z,42.805,6.029,13.2981,4.59985,2470.203,2021-1-15T14:27:41Z
2021-01-15T12:29:42Z,42.805,6.029,13.2984,4.59985,2470.18,2021-1-15T14:30:44Z
2021-01-15T12:32:45Z,42.805,6.029,13.2981,4.59986,2470.194,2021-1-15T14:33:47Z
2021-01-15T12:35:48Z,42.805,6.029,13.2981,4.59986,2470.18,2021-1-15T14:36:50Z
2021-01-15T12:38:52Z,42.805,6.029,13.2982,4.59986,2470.203,2021-1-15T14:39:53Z
2021-01-15T12:41:55Z,42.805,6.029,13.2982,4.59984,2470.217,2021-1-15T14:42:56Z
2021-01-15T12:44:58Z,42.805,6.029,13.2981,4.59986,2470.18,2021-1-15T14:45:59Z
2021-01-15T12:48:01Z,42.805,6.029,13.2979,4.59985,2470.156,2021-1-15T14:49:02Z
2021-01-15T12:51:04Z,42.805,6.029,13.2980,4.59985,2470.217,2021-1-15T14:52:06Z
2021-01-15T12:54:07Z,42.805,6.029,13.2983,4.59985,2470.24,2021-1-15T14:55:09Z
2021-01-15T12:57:10Z,42.805,6.029,13.2985,4.59985,2470.18,2021-1-15T14:58:12Z
2021-01-15T13:00:13Z,42.805,6.029,13.2981,4.59985,2470.156,2021-1-15T15:01:15Z
2021-01-15T13:03:17Z,42.805,6.029,13.2982,4.59985,2470.203,2021-1-15T15:04:18Z
2021-01-15T13:06:20Z,42.805,6.029,13.2984,4.59984,2470.203,2021-1-15T15:07:21Z
2021-01-15T13:09:23Z,42.805,6.029,13.2984,4.59985,2470.171,2021-1-15T15:10:24Z
2021-01-15T13:12:26Z,42.805,6.029,13.2983,4.59985,2470.156,2021-1-15T15:13:27Z
2021-01-15T13:15:29Z,42.805,6.029,13.2982,4.59985,2470.18,2021-1-15T15:16:31Z
2021-01-15T13:18:32Z,42.805,6.029,13.2982,4.59985,2470.203,2021-1-15T15:19:34Z
2021-01-15T13:21:35Z,42.805,6.029,13.2982,4.59986,2470.203,2021-1-15T15:22:37Z
2021-01-15T13:24:39Z,42.805,6.029,13.2984,4.59986,2470.156,2021-1-15T15:25:40Z
2021-01-15T13:27:42Z,42.805,6.029,13.2979,4.59986,2470.203,2021-1-15T15:28:43Z
2021-01-15T13:30:45Z,42.805,6.029,13.2984,4.59986,2470.171,2021-1-15T15:31:46Z
2021-01-15T13:33:48Z,42.805,6.029,13.2982,4.59985,2470.133,2021-1-15T15:34:49Z
2021-01-15T13:36:51Z,42.805,6.029,13.2983,4.59985,2470.133,2021-1-15T15:37:52Z
2021-01-15T13:39:54Z,42.805,6.029,13.2981,4.59986,2470.133,2021-1-15T15:40:56Z
2021-01-15T13:42:57Z,42.805,6.029,13.2980,4.59986,2470.171,2021-1-15T15:43:59Z
2021-01-15T13:46:00Z,42.805,6.029,13.2986,4.59986,2470.147,2021-1-15T15:47:02Z
2021-01-15T13:49:04Z,42.805,6.029,13.2983,4.59985,2470.156,2021-1-15T15:50:05Z
2021-01-15T13:52:07Z,42.805,6.029,13.2983,4.59985,2470.133,2021-1-15T15:53:08Z
2021-01-15T13:55:10Z,42.805,6.029,13.2983,4.59986,2470.147,2021-1-15T15:56:11Z
2021-01-15T13:58:13Z,42.805,6.029,13.2983,4.59986,2470.133,2021-1-15T15:59:14Z
2021-01-15T14:01:16Z,42.805,6.029,13.2983,4.59988,2470.133,2021-1-15T16:02:17Z
2021-01-15T14:04:19Z,42.805,6.029,13.2986,4.59984,2470.147,2021-1-15T16:05:21Z
2021-01-15T14:07:22Z,42.805,6.029,13.2983,4.59986,2470.11,2021-1-15T16:08:24Z
2021-01-15T14:10:25Z,42.805,6.029,13.2983,4.59986,2470.147,2021-1-15T16:11:27Z
2021-01-15T14:13:29Z,42.805,6.029,13.2983,4.59985,2470.124,2021-1-15T16:14:30Z
2021-01-15T14:16:32Z,42.805,6.029,13.2982,4.59986,2470.156,2021-1-15T16:17:33Z
2021-01-15T14:19:35Z,42.805,6.029,13.2979,4.59986,2470.133,2021-1-15T16:20:36Z
2021-01-15T14:22:38Z,42.805,6.029,13.2985,4.59986,2470.124,2021-1-15T16:23:39Z
2021-01-15T14:25:41Z,42.805,6.029,13.2985,4.59986,2470.147,2021-1-15T16:26:43Z
2021-01-15T14:28:44Z,42.805,6.029,13.2982,4.59986,2470.133,2021-1-15T16:29:46Z
2021-01-15T14:31:47Z,42.805,6.029,13.2983,4.59986,2470.11,2021-1-15T16:32:49Z
2021-01-15T14:34:51Z,42.805,6.029,13.2981,4.59986,2470.087,2021-1-15T16:35:52Z
2021-01-15T14:37:54Z,42.805,6.029,13.2986,4.59986,2470.133,2021-1-15T16:38:55Z
2021-01-15T14:40:57Z,42.805,6.029,13.2984,4.59986,2470.124,2021-1-15T16:41:58Z
2021-01-15T14:44:00Z,42.805,6.029,13.2982,4.59986,2470.147,2021-1-15T16:45:01Z
2021-01-15T14:47:03Z,42.805,6.029,13.2982,4.59986,2470.124,2021-1-15T16:48:04Z
2021-01-15T14:50:06Z,42.805,6.029,13.2983,4.59986,2470.11,2021-1-15T16:51:08Z
2021-01-15T14:53:09Z,42.805,6.029,13.2982,4.59986,2470.087,2021-1-15T16:54:11Z
2021-01-15T14:56:12Z,42.805,6.029,13.2983,4.59986,2470.133,2021-1-15T16:57:14Z
2021-01-15T14:59:16Z,42.805,6.029,13.2986,4.59986,2470.11,2021-1-15T17:00:17Z
2021-01-15T15:02:19Z,42.805,6.029,13.2983,4.59987,2470.1,2021-1-15T17:03:20Z
2021-01-15T15:05:22Z,42.805,6.029,13.2983,4.59986,2470.11,2021-1-15T17:06:23Z
2021-01-15T15:08:25Z,42.805,6.029,13.2982,4.59988,2470.124,2021-1-15T17:09:26Z
2021-01-15T15:11:28Z,42.805,6.029,13.2981,4.59987,2470.11,2021-1-15T17:12:29Z
2021-01-15T15:14:31Z,42.805,6.029,13.2981,4.59988,2470.11,2021-1-15T17:15:33Z